When you browse on this site, cookies collect data to enhance your experience and personalize the content and advertising you see.
Visit our Privacy Policy to learn more. By continuing to use the site, you agree to this use of cookies and data.
  • In United Kingdom
  • List of Countries
  • For 7 days
  • Water Temperature
  • Weather Map
  • Weather Widgets
  • user-avatar
    Login

    Hourly Weather Paro

    Today, 21 February, Friday

    Time Temperature Precipitation Wind Pressure Humidity
    00:00 +5°C° 0 mm 1 mps 560 mmHg 85%
    01:00 +5°C° 0 mm 1 mps 560 mmHg 84%
    02:00 +5°C° 0 mm 1 mps 560 mmHg 83%
    03:00 +3°C° 0 mm 2 mps 560 mmHg 82%
    04:00 +3°C° 0 mm 2 mps 560 mmHg 79%
    05:00 +3°C° 0 mm 2 mps 560 mmHg 76%
    06:00 +3°C° 0 mm 2 mps 560 mmHg 73%
    07:00 +6°C° 0 mm 1 mps 562 mmHg 65%
    08:00 +9°C° 0 mm 1 mps 564 mmHg 57%
    09:00 +12°C° 0 mm 1 mps 566 mmHg 50%
    10:00 +13°C° 0 mm 1 mps 566 mmHg 47%
    11:00 +14°C° 0 mm 2 mps 566 mmHg 45%
    12:00 +14°C° 0 mm 3 mps 567 mmHg 43%
    19:00 +6°C° 0 mm 1 mps 562 mmHg 91%
    20:00 +6°C° 0 mm 1 mps 562 mmHg 90%
    21:00 +5°C° 0 mm 1 mps 562 mmHg 88%
    22:00 +5°C° 0 mm 1 mps 562 mmHg 85%
    23:00 +5°C° 0 mm 1 mps 562 mmHg 81%

    Tomorrow, 22 February, Saturday

    Time Temperature Precipitation Wind Pressure Humidity
    00:00 +5°C° 0 mm 1 mps 562 mmHg 78%
    01:00 +5°C° 0 mm 1 mps 561 mmHg 76%
    02:00 +4°C° 0 mm 1 mps 561 mmHg 75%
    03:00 +4°C° 0 mm 1 mps 561 mmHg 73%
    04:00 +5°C° 0.1 mm 1 mps 561 mmHg 74%
    05:00 +5°C° 0.1 mm 1 mps 561 mmHg 74%
    06:00 +4°C° 0.1 mm 0 mps 562 mmHg 74%
    07:00 +6°C° 0.4 mm 1 mps 562 mmHg 74%
    08:00 +7°C° 0.4 mm 1 mps 563 mmHg 75%
    09:00 +8°C° 0.4 mm 1 mps 564 mmHg 75%
    10:00 +9°C° 0.3 mm 1 mps 563 mmHg 75%
    11:00 +8°C° 0.3 mm 2 mps 563 mmHg 74%
    12:00 +9°C° 0.3 mm 2 mps 563 mmHg 74%
    13:00 +9°C° 0.4 mm 2 mps 562 mmHg 76%
    14:00 +9°C° 0.4 mm 3 mps 562 mmHg 78%
    15:00 +9°C° 0.4 mm 3 mps 561 mmHg 81%
    16:00 +7°C° 0.5 mm 2 mps 561 mmHg 86%
    17:00 +6°C° 0.5 mm 2 mps 560 mmHg 91%
    18:00 +6°C° 0.5 mm 1 mps 560 mmHg 97%
    19:00 +6°C° 0.4 mm 1 mps 560 mmHg 96%
    20:00 +5°C° 0.4 mm 1 mps 560 mmHg 96%
    21:00 +4°C° 0.4 mm 0 mps 561 mmHg 96%
    22:00 +4°C° 0.8 mm 0 mps 561 mmHg 96%
    23:00 +5°C° 0.8 mm 1 mps 561 mmHg 96%

    Day after tomorrow, 23 February, Sunday

    Time Temperature Precipitation Wind Pressure Humidity
    00:00 +5°C° 0.8 mm 1 mps 561 mmHg 97%
    01:00 +5°C° 0.6 mm 1 mps 561 mmHg 97%
    02:00 +4°C° 0.6 mm 0 mps 560 mmHg 97%
    03:00 +4°C° 0.6 mm 0 mps 560 mmHg 97%
    04:00 +3°C° 0.2 mm 0 mps 560 mmHg 97%
    05:00 +3°C° 0.2 mm 0 mps 559 mmHg 96%
    06:00 +3°C° 0.2 mm 1 mps 559 mmHg 96%
    07:00 +5°C° 0.1 mm 1 mps 560 mmHg 91%
    08:00 +6°C° 0.1 mm 1 mps 561 mmHg 86%
    09:00 +8°C° 0.1 mm 1 mps 563 mmHg 80%
    10:00 +9°C° 0.2 mm 1 mps 563 mmHg 78%
    11:00 +9°C° 0.2 mm 2 mps 563 mmHg 75%
    12:00 +9°C° 0.2 mm 2 mps 563 mmHg 72%
    13:00 +9°C° 0.5 mm 2 mps 562 mmHg 74%
    14:00 +9°C° 0.5 mm 2 mps 561 mmHg 76%
    15:00 +9°C° 0.5 mm 2 mps 560 mmHg 78%
    16:00 +7°C° 0.4 mm 2 mps 560 mmHg 84%
    17:00 +7°C° 0.4 mm 1 mps 559 mmHg 90%
    18:00 +5°C° 0.4 mm 1 mps 558 mmHg 95%
    19:00 +5°C° 0.1 mm 1 mps 558 mmHg 95%
    20:00 +4°C° 0.1 mm 1 mps 558 mmHg 94%
    21:00 +4°C° 0.1 mm 1 mps 558 mmHg 94%
    22:00 +4°C° 0.1 mm 1 mps 558 mmHg 93%
    23:00 +4°C° 0.1 mm 1 mps 558 mmHg 92%

    24 February, Monday

    Time Temperature Precipitation Wind Pressure Humidity
    00:00 +3°C° 0.1 mm 1 mps 558 mmHg 91%
    01:00 +3°C° 0.1 mm 1 mps 558 mmHg 92%
    02:00 +3°C° 0.1 mm 1 mps 558 mmHg 92%
    03:00 +3°C° 0.1 mm 1 mps 557 mmHg 92%
    04:00 +3°C° 0 mm 1 mps 557 mmHg 91%
    05:00 +2°C° 0 mm 1 mps 557 mmHg 90%
    06:00 +2°C° 0 mm 1 mps 557 mmHg 89%
    07:00 +4°C° 0 mm 1 mps 558 mmHg 83%
    08:00 +6°C° 0 mm 1 mps 560 mmHg 77%
    09:00 +8°C° 0 mm 1 mps 561 mmHg 71%
    10:00 +9°C° 0.1 mm 1 mps 561 mmHg 68%
    11:00 +9°C° 0.1 mm 2 mps 562 mmHg 65%
    12:00 +10°C° 0.1 mm 2 mps 562 mmHg 63%
    13:00 +10°C° 0.6 mm 2 mps 561 mmHg 66%
    14:00 +9°C° 0.6 mm 2 mps 560 mmHg 70%
    15:00 +9°C° 0.6 mm 2 mps 559 mmHg 74%
    16:00 +7°C° 0.4 mm 2 mps 558 mmHg 81%
    17:00 +7°C° 0.4 mm 1 mps 557 mmHg 89%
    18:00 +5°C° 0.4 mm 1 mps 556 mmHg 96%
    19:00 +4°C° 0 mm 1 mps 556 mmHg 94%
    20:00 +4°C° 0 mm 1 mps 557 mmHg 92%
    21:00 +3°C° 0 mm 1 mps 557 mmHg 90%
    22:00 +3°C° 0 mm 1 mps 557 mmHg 89%
    23:00 +3°C° 0 mm 1 mps 557 mmHg 87%

    25 February, Tuesday

    Time Temperature Precipitation Wind Pressure Humidity
    00:00 +3°C° 0 mm 1 mps 557 mmHg 86%
    01:00 +3°C° 0 mm 1 mps 557 mmHg 85%
    02:00 +3°C° 0 mm 1 mps 557 mmHg 84%
    03:00 +3°C° 0 mm 1 mps 557 mmHg 84%
    04:00 +3°C° 0 mm 1 mps 557 mmHg 84%
    05:00 +3°C° 0 mm 1 mps 557 mmHg 83%
    06:00 +3°C° 0 mm 1 mps 557 mmHg 83%
    07:00 +4°C° 0.1 mm 1 mps 558 mmHg 82%
    08:00 +6°C° 0.1 mm 1 mps 559 mmHg 82%
    09:00 +7°C° 0.1 mm 1 mps 560 mmHg 81%
    10:00 +7°C° 0.7 mm 1 mps 560 mmHg 83%
    11:00 +8°C° 0.7 mm 1 mps 559 mmHg 85%
    12:00 +8°C° 0.7 mm 1 mps 559 mmHg 87%
    13:00 +7°C° 1.4 mm 2 mps 558 mmHg 90%
    14:00 +6°C° 1.4 mm 2 mps 557 mmHg 93%
    15:00 +6°C° 1.4 mm 2 mps 556 mmHg 96%
    16:00 +6°C° 1.9 mm 1 mps 556 mmHg 97%
    17:00 +6°C° 1.9 mm 1 mps 556 mmHg 98%
    18:00 +5°C° 1.9 mm 1 mps 556 mmHg 98%
    19:00 +5°C° 2.5 mm 1 mps 556 mmHg 98%
    20:00 +5°C° 2.5 mm 1 mps 557 mmHg 98%
    21:00 +5°C° 2.5 mm 1 mps 557 mmHg 98%
    22:00 +4°C° 0.8 mm 0 mps 557 mmHg 98%
    23:00 +3°C° 0.8 mm 0 mps 557 mmHg 98%

    26 February, Wednesday

    Time Temperature Precipitation Wind Pressure Humidity
    00:00 +3°C° 0.8 mm 0 mps 556 mmHg 98%
    01:00 +3°C° 0.1 mm 0 mps 556 mmHg 98%
    02:00 +3°C° 0.1 mm 0 mps 556 mmHg 98%
    03:00 +2°C° 0.1 mm 0 mps 555 mmHg 98%
    04:00 +2°C° 0.1 mm 0 mps 555 mmHg 97%
    05:00 +2°C° 0.1 mm 1 mps 555 mmHg 96%
    06:00 +2°C° 0.1 mm 1 mps 555 mmHg 95%
    07:00 +3°C° 0.1 mm 1 mps 556 mmHg 95%
    08:00 +5°C° 0.1 mm 1 mps 557 mmHg 95%
    09:00 +6°C° 0.1 mm 1 mps 558 mmHg 94%
    10:00 +6°C° 0.6 mm 1 mps 558 mmHg 95%
    11:00 +7°C° 0.6 mm 1 mps 558 mmHg 96%
    12:00 +7°C° 0.6 mm 1 mps 558 mmHg 97%
    13:00 +7°C° 0.9 mm 1 mps 557 mmHg 97%
    14:00 +6°C° 0.9 mm 2 mps 557 mmHg 98%
    15:00 +5°C° 0.9 mm 2 mps 556 mmHg 98%
    16:00 +6°C° 0.7 mm 1 mps 556 mmHg 98%
    17:00 +6°C° 0.7 mm 1 mps 556 mmHg 99%
    18:00 +4°C° 0.7 mm 0 mps 556 mmHg 99%
    19:00 +4°C° 0.2 mm 0 mps 556 mmHg 98%
    20:00 +3°C° 0.2 mm 0 mps 556 mmHg 97%
    21:00 +3°C° 0.2 mm 0 mps 556 mmHg 97%
    22:00 +3°C° 0 mm 1 mps 556 mmHg 94%
    23:00 +2°C° 0 mm 1 mps 555 mmHg 91%
    Show more